Weather History for Logansport, IN

Change the Weather History Date:

Sunday, March 2, 2014

  Actual Average Record
Temperature  
Mean Temperature 16 °F -  
Max Temperature 21 °F 51 °F 32 °F (2013)
Min Temperature 10 °F 27 °F 10 °F (2014)
Degree Days  
Heating Degree Days 48    
Moisture  
Dew Point 10 °F    
Average Humidity 75    
Maximum Humidity 86    
Minimum Humidity 63    
Precipitation  
Precipitation 0.03 in - - ()
Sea Level Pressure  
Sea Level Pressure 30.28 in    
Wind  
Wind Speed 9 mph (North)    
Max Wind Speed 17 mph    
Max Gust Speed 28 mph    
Visibility 8 miles    
Events Snow    
Averages and records for this station are not official NWS values.
T = Trace of Precipitation, MM = Missing Value Source: NWS Daily Summary

Daily Weather History Graph

Daily Weather History Graph

Search for Another Location

Airport:

Trip Planner

Search our weather history database for the weather conditions in past years. The results will help you decide how hot, cold, wet, or windy it might be!

Date:

Astronomy

Mar. 02, 2014 Rise Set
Actual Time 7:17 AM EST 6:37 PM EST
Civil Twilight 6:50 AM EST 7:05 PM EST
Nautical Twilight 6:18 AM EST 7:37 PM EST
Astronomical Twilight 5:47 AM EST 8:08 PM EST
Moon 7:48 AM EST (3/2) 8:34 PM EST (3/2)
Length of Visible Light 12h 14m
Length of Day
11h 20m
Waxing Crescent, 3% of the Moon is Illuminated
Mar 2
Waxing Crescent
Mar 8
First Quarter
Mar 16
Full
Mar 23
Last Quarter
Mar 30
New

Hourly Weather History & Observations

Time (EST) Temp. Windchill Dew Point Humidity Pressure Visibility Wind Dir Wind Speed Gust Speed Precip Events Conditions
12:15 AM 19.4 °F 10.4 °F 14.0 °F 80% 30.24 in 10.0 mi North 6.9 mph - N/A   Overcast
12:35 AM 19.4 °F 10.4 °F 14.0 °F 80% 30.24 in 10.0 mi NNE 6.9 mph - N/A   Overcast
12:50 AM 19.4 °F 9.5 °F 14.0 °F 80% 30.25 in 10.0 mi North 8.1 mph - N/A   Overcast
1:15 AM 19.4 °F 11.5 °F 14.0 °F 80% 30.25 in 10.0 mi North 5.8 mph - N/A   Overcast
1:35 AM 19.4 °F 10.4 °F 14.0 °F 80% 30.27 in 4.0 mi North 6.9 mph - N/A Snow Light Snow
1:55 AM 19.4 °F 7.9 °F 14.0 °F 80% 30.27 in 2.5 mi North 10.4 mph 16.1 mph N/A Snow Light Snow
2:15 AM 19.4 °F 8.6 °F 14.0 °F 80% 30.27 in 2.5 mi North 9.2 mph - N/A Snow Light Snow
2:35 AM 19.4 °F 7.2 °F 14.0 °F 80% 30.26 in 2.0 mi North 11.5 mph 16.1 mph N/A Snow Light Snow
2:55 AM 17.6 °F 6.4 °F 14.0 °F 86% 30.24 in 2.0 mi North 9.2 mph - N/A Snow Light Snow
3:15 AM 17.6 °F 8.2 °F 14.0 °F 86% 30.24 in 2.0 mi North 6.9 mph - N/A Snow Light Snow
3:35 AM 17.6 °F 6.4 °F 14.0 °F 86% 30.26 in 2.0 mi North 9.2 mph - N/A Snow Light Snow
3:55 AM 17.6 °F 6.4 °F 14.0 °F 86% 30.25 in 1.5 mi North 9.2 mph - N/A Snow Light Snow
4:15 AM 17.6 °F 5.7 °F 14.0 °F 86% 30.24 in 0.8 mi North 10.4 mph - N/A Snow Snow
4:35 AM 17.6 °F 8.2 °F 14.0 °F 86% 30.26 in 1.0 mi NNE 6.9 mph - 0.01 in Snow Snow
4:55 AM 17.6 °F 7.3 °F 14.0 °F 86% 30.27 in 2.0 mi North 8.1 mph - 0.01 in Snow Light Snow
5:15 AM 17.6 °F 9.3 °F 12.2 °F 79% 30.26 in 1.0 mi North 5.8 mph 9.2 mph 0.01 in Snow Light Snow
5:30 AM 17.6 °F 10.7 °F 12.2 °F 79% 30.27 in 1.5 mi North 4.6 mph - 0.01 in Snow Light Snow
5:55 AM 15.8 °F 5.1 °F 12.2 °F 86% 30.26 in 1.8 mi NNE 8.1 mph - 0.01 in Snow Light Snow
6:15 AM 15.8 °F 3.4 °F 12.2 °F 86% 30.26 in 1.5 mi NNE 10.4 mph - 0.01 in Snow Light Snow
6:35 AM 15.8 °F 5.1 °F 12.2 °F 86% 30.26 in 1.2 mi North 8.1 mph - 0.01 in Snow Light Snow
6:55 AM 15.8 °F 3.4 °F 12.2 °F 86% 30.26 in 1.2 mi North 10.4 mph 16.1 mph 0.01 in Snow Light Snow
7:15 AM 15.8 °F 5.1 °F 12.2 °F 86% 30.26 in 1.5 mi North 8.1 mph - N/A Snow Light Snow
7:35 AM 15.8 °F 5.1 °F 12.2 °F 86% 30.27 in 4.0 mi North 8.1 mph - N/A Snow Light Snow
7:55 AM 15.8 °F 5.1 °F 12.2 °F 86% 30.27 in 3.0 mi North 8.1 mph - N/A Snow Light Snow
8:15 AM 15.8 °F 6.1 °F 12.2 °F 86% 30.27 in 3.0 mi North 6.9 mph - N/A Snow Light Snow
8:35 AM 15.8 °F 4.2 °F 12.2 °F 86% 30.27 in 4.0 mi North 9.2 mph - N/A Snow Light Snow
8:55 AM 15.8 °F 3.4 °F 12.2 °F 86% 30.28 in 7.0 mi North 10.4 mph - N/A   Overcast
9:15 AM 15.8 °F 4.2 °F 10.4 °F 79% 30.28 in 7.0 mi North 9.2 mph - N/A   Overcast
9:35 AM 15.8 °F 2.1 °F 10.4 °F 79% 30.28 in 10.0 mi North 12.7 mph - N/A   Scattered Clouds
9:55 AM 15.8 °F 2.7 °F 10.4 °F 79% 30.28 in 10.0 mi North 11.5 mph - N/A   Scattered Clouds
10:10 AM 17.6 °F 5.7 °F 10.4 °F 73% 30.29 in 10.0 mi North 10.4 mph - N/A   Scattered Clouds
10:35 AM 17.6 °F 8.2 °F 10.4 °F 73% 30.30 in 10.0 mi North 6.9 mph - N/A   Scattered Clouds
10:55 AM 17.6 °F 5.7 °F 10.4 °F 73% 30.29 in 10.0 mi North 10.4 mph - N/A   Mostly Cloudy
11:15 AM 19.4 °F 9.5 °F 10.4 °F 68% 30.29 in 10.0 mi North 8.1 mph - N/A   Scattered Clouds
11:35 AM 19.4 °F 7.2 °F 10.4 °F 68% 30.29 in 10.0 mi North 11.5 mph - N/A   Scattered Clouds
11:55 AM 19.4 °F 7.2 °F 10.4 °F 68% 30.29 in 10.0 mi North 11.5 mph - N/A   Scattered Clouds
12:15 PM 19.4 °F 7.2 °F 10.4 °F 68% 30.29 in 10.0 mi North 11.5 mph - N/A   Overcast
12:35 PM 19.4 °F 6.0 °F 8.6 °F 63% 30.28 in 10.0 mi North 13.8 mph 18.4 mph N/A   Mostly Cloudy
12:55 PM 21.2 °F 9.5 °F 10.4 °F 63% 30.28 in 10.0 mi North 11.5 mph - N/A   Mostly Cloudy
1:15 PM 21.2 °F 9.5 °F 10.4 °F 63% 30.28 in 10.0 mi NNW 11.5 mph - N/A   Mostly Cloudy
1:35 PM 21.2 °F 8.9 °F 10.4 °F 63% 30.28 in 10.0 mi North 12.7 mph - N/A   Mostly Cloudy
1:55 PM 21.2 °F 9.5 °F 10.4 °F 63% 30.26 in 10.0 mi NNW 11.5 mph - N/A   Mostly Cloudy
2:15 PM 21.2 °F 9.5 °F 10.4 °F 63% 30.26 in 10.0 mi NNW 11.5 mph - N/A   Overcast
2:35 PM 19.4 °F 6.0 °F 10.4 °F 68% 30.26 in 10.0 mi North 13.8 mph - N/A   Mostly Cloudy
2:50 PM 19.4 °F 6.6 °F 12.2 °F 74% 30.26 in 10.0 mi NNW 12.7 mph - N/A   Mostly Cloudy
3:15 PM 19.4 °F 7.2 °F 10.4 °F 68% 30.26 in 10.0 mi NNW 11.5 mph - N/A   Overcast
3:35 PM 19.4 °F 5.0 °F 10.4 °F 68% 30.25 in 10.0 mi NNW 16.1 mph - N/A   Mostly Cloudy
3:55 PM 19.4 °F 7.2 °F 10.4 °F 68% 30.26 in 10.0 mi NNW 11.5 mph - N/A   Scattered Clouds
4:15 PM 19.4 °F 6.6 °F 10.4 °F 68% 30.29 in 10.0 mi NNW 12.7 mph - N/A   Scattered Clouds
4:35 PM 17.6 °F 5.0 °F 10.4 °F 73% 30.29 in 10.0 mi NW 11.5 mph 24.2 mph N/A   Scattered Clouds
4:55 PM 17.6 °F 5.7 °F 10.4 °F 73% 30.28 in 10.0 mi NW 10.4 mph - N/A   Clear
5:15 PM 17.6 °F 8.2 °F 10.4 °F 73% 30.27 in 10.0 mi NW 6.9 mph - N/A   Scattered Clouds
5:35 PM 17.6 °F 2.2 °F 10.4 °F 73% 30.27 in 10.0 mi NW 17.3 mph 27.6 mph N/A   Clear
5:55 PM 17.6 °F 7.3 °F 8.6 °F 68% 30.28 in 10.0 mi NNW 8.1 mph - N/A   Clear
6:15 PM 17.6 °F 8.2 °F 10.4 °F 73% 30.29 in 10.0 mi NW 6.9 mph - N/A   Clear
6:35 PM 15.8 °F 4.2 °F 10.4 °F 79% 30.28 in 10.0 mi NW 9.2 mph - N/A   Clear
6:55 PM 15.8 °F 4.2 °F 10.4 °F 79% 30.29 in 10.0 mi NNW 9.2 mph - N/A   Clear
7:15 PM 15.8 °F 6.1 °F 8.6 °F 73% 30.29 in 10.0 mi NNW 6.9 mph - N/A   Clear
7:35 PM 15.8 °F 5.1 °F 8.6 °F 73% 30.29 in 10.0 mi NNW 8.1 mph - N/A   Clear
7:55 PM 15.8 °F 5.1 °F 8.6 °F 73% 30.29 in 10.0 mi NW 8.1 mph - N/A   Clear
8:15 PM 15.8 °F 3.4 °F 8.6 °F 73% 30.30 in 10.0 mi NNW 10.4 mph - N/A   Clear
8:35 PM 15.8 °F 4.2 °F 8.6 °F 73% 30.31 in 10.0 mi NNW 9.2 mph - N/A   Clear
8:55 PM 14.0 °F 0.5 °F 8.6 °F 79% 30.31 in 10.0 mi North 11.5 mph - N/A   Clear
9:15 PM 14.0 °F -0.2 °F 5.0 °F 67% 30.31 in 10.0 mi North 12.7 mph - N/A   Clear
9:35 PM 14.0 °F -0.8 °F 5.0 °F 67% 30.31 in 10.0 mi North 13.8 mph 17.3 mph N/A   Clear
9:55 PM 12.2 °F -1.0 °F 3.2 °F 67% 30.31 in 10.0 mi North 10.4 mph 16.1 mph N/A   Clear
10:15 PM 12.2 °F -1.8 °F 3.2 °F 67% 30.33 in 10.0 mi North 11.5 mph - N/A   Clear
10:35 PM 12.2 °F -1.0 °F 3.2 °F 67% 30.34 in 10.0 mi North 10.4 mph - N/A   Clear
10:55 PM 12.2 °F -2.5 °F 3.2 °F 67% 30.33 in 10.0 mi North 12.7 mph 19.6 mph N/A   Clear
11:15 PM 12.2 °F -1.8 °F 3.2 °F 67% 30.33 in 10.0 mi North 11.5 mph - N/A   Clear
11:35 PM 12.2 °F -2.5 °F 3.2 °F 67% 30.34 in 10.0 mi North 12.7 mph 19.6 mph N/A   Clear
11:55 PM 10.4 °F -5.4 °F 3.2 °F 73% 30.33 in 10.0 mi North 13.8 mph 20.7 mph N/A   Clear